Time,TemperatureF,DewpointF,PressureIn,WindDirection,WindDirectionDegrees,WindSpeedMPH,WindSpeedGustMPH,Humidity,HourlyPrecipIn,Conditions,Clouds,dailyrainin,SoftwareType,DateUTC
2013-01-12 00:02:00,25.2,8.2,28.58,WSW,248,8.3,8.3,48,0.00,CLR,CLR,0.00,WeatherDisplay:10.37,2013-01-12 06:02:00,
2013-01-12 00:07:00,25.2,9.1,28.58,West,270,5.9,0.0,50,0.00,CLR,CLR,0.00,WeatherDisplay:10.37,2013-01-12 06:07:00,
2013-01-12 00:12:00,25.2,9.5,28.58,West,270,8.7,8.7,51,0.00,CLR,CLR,0.00,WeatherDisplay:10.37,2013-01-12 06:12:00,
2013-01-12 00:18:00,25.2,10.0,28.61,West,270,8.3,8.3,52,0.00,CLR,CLR,0.00,WeatherDisplay:10.37,2013-01-12 06:18:00,
2013-01-12 00:23:00,25.2,10.0,28.61,West,270,4.6,0.0,52,0.00,CLR,CLR,0.00,WeatherDisplay:10.37,2013-01-12 06:23:00,
2013-01-12 00:29:00,25.3,10.6,28.61,NW,315,2.3,0.0,53,0.00,CLR,CLR,0.00,WeatherDisplay:10.37,2013-01-12 06:29:00,
2013-01-12 00:35:00,25.5,11.2,28.61,West,270,4.6,0.0,54,0.00,CLR,CLR,0.00,WeatherDisplay:10.37,2013-01-12 06:35:00,
2013-01-12 00:40:00,25.7,11.3,28.61,SW,225,0.0,0.0,54,0.00,CLR,CLR,0.00,WeatherDisplay:10.37,2013-01-12 06:40:00,
2013-01-12 00:45:00,25.9,11.9,28.61,West,270,0.0,0.0,55,0.00,CLR,CLR,0.00,WeatherDisplay:10.37,2013-01-12 06:45:00,
2013-01-12 00:50:00,26.1,12.1,28.61,West,270,8.1,0.0,55,0.00,CLR,CLR,0.00,WeatherDisplay:10.37,2013-01-12 06:50:00,
2013-01-12 00:55:00,26.1,12.5,28.61,WSW,248,0.0,0.0,56,0.00,CLR,CLR,0.00,WeatherDisplay:10.37,2013-01-12 06:55:00,
2013-01-12 01:00:00,26.1,12.1,28.64,West,270,0.0,0.0,55,0.00,CLR,CLR,0.00,WeatherDisplay:10.37,2013-01-12 07:00:00,
2013-01-12 01:05:00,26.1,12.1,28.64,SW,225,0.0,0.0,55,0.00,CLR,CLR,0.00,WeatherDisplay:10.37,2013-01-12 07:05:00,
2013-01-12 01:10:00,25.9,11.5,28.64,WSW,248,7.1,7.1,54,0.00,CLR,CLR,0.00,WeatherDisplay:10.37,2013-01-12 07:10:00,
2013-01-12 01:15:00,25.3,10.6,28.67,WSW,248,8.1,8.1,53,0.00,CLR,CLR,0.00,WeatherDisplay:10.37,2013-01-12 07:15:00,
2013-01-12 01:20:00,25.0,9.4,28.67,West,270,10.9,10.9,51,0.00,CLR,CLR,0.00,WeatherDisplay:10.37,2013-01-12 07:20:00,
2013-01-12 01:25:00,24.4,7.5,28.67,West,270,0.0,0.0,48,0.00,CLR,CLR,0.00,WeatherDisplay:10.37,2013-01-12 07:25:00,
2013-01-12 01:30:00,24.3,6.9,28.67,WSW,248,0.0,0.0,47,0.00,CLR,CLR,0.00,WeatherDisplay:10.37,2013-01-12 07:30:00,
2013-01-12 01:35:00,24.1,7.2,28.67,SW,225,3.1,0.0,48,0.00,CLR,CLR,0.00,WeatherDisplay:10.37,2013-01-12 07:35:00,
2013-01-12 01:40:00,23.9,7.5,28.67,WSW,248,4.6,0.0,49,0.00,CLR,CLR,0.00,WeatherDisplay:10.37,2013-01-12 07:40:00,
2013-01-12 01:45:00,23.7,7.8,28.67,West,270,0.0,0.0,50,0.00,CLR,CLR,0.00,WeatherDisplay:10.37,2013-01-12 07:45:00,
2013-01-12 01:50:00,23.5,8.0,28.67,SW,225,0.0,0.0,51,0.00,CLR,CLR,0.00,WeatherDisplay:10.37,2013-01-12 07:50:00,
2013-01-12 01:55:00,23.5,8.5,28.67,WSW,248,2.3,0.0,52,0.00,CLR,CLR,0.00,WeatherDisplay:10.37,2013-01-12 07:55:00,
2013-01-12 02:00:00,23.5,8.5,28.67,SW,225,3.5,0.0,52,0.00,CLR,CLR,0.00,WeatherDisplay:10.37,2013-01-12 08:00:00,
2013-01-12 02:05:00,23.5,8.5,28.67,SW,225,8.7,8.7,52,0.00,CLR,CLR,0.00,WeatherDisplay:10.37,2013-01-12 08:05:00,
2013-01-12 02:10:00,23.4,8.3,28.67,West,270,4.9,0.0,52,0.00,CLR,CLR,0.00,WeatherDisplay:10.37,2013-01-12 08:10:00,
2013-01-12 02:15:00,23.2,7.3,28.70,WSW,248,3.6,3.6,50,0.00,CLR,CLR,0.00,WeatherDisplay:10.37,2013-01-12 08:15:00,
2013-01-12 02:20:00,23.0,7.1,28.70,West,270,8.1,8.1,50,0.00,CLR,CLR,0.00,WeatherDisplay:10.37,2013-01-12 08:20:00,
2013-01-12 02:25:00,22.8,6.5,28.70,West,270,3.6,0.0,49,0.00,CLR,CLR,0.00,WeatherDisplay:10.37,2013-01-12 08:25:00,
2013-01-12 02:30:00,22.8,6.5,28.70,WNW,292,4.6,0.0,49,0.00,CLR,CLR,0.00,WeatherDisplay:10.37,2013-01-12 08:30:00,
2013-01-12 02:35:00,22.6,5.9,28.70,WNW,292,8.1,8.1,48,0.00,CLR,CLR,0.00,WeatherDisplay:10.37,2013-01-12 08:35:00,
2013-01-12 02:40:00,22.5,5.7,28.70,NW,315,2.3,0.0,48,0.00,CLR,CLR,0.00,WeatherDisplay:10.37,2013-01-12 08:40:00,
2013-01-12 02:45:00,22.5,5.7,28.70,SSE,158,0.0,0.0,48,0.00,CLR,CLR,0.00,WeatherDisplay:10.37,2013-01-12 08:45:00,
2013-01-12 02:50:00,22.3,6.0,28.70,WNW,292,0.0,0.0,49,0.00,CLR,CLR,0.00,WeatherDisplay:10.37,2013-01-12 08:50:00,
2013-01-12 02:56:00,22.1,5.8,28.70,WSW,248,4.6,0.0,49,0.00,CLR,CLR,0.00,WeatherDisplay:10.37,2013-01-12 08:56:00,
2013-01-12 03:01:00,22.1,5.4,28.73,West,270,2.3,0.0,48,0.00,CLR,CLR,0.00,WeatherDisplay:10.37,2013-01-12 09:01:00,
2013-01-12 03:06:00,21.9,4.7,28.73,West,270,2.6,0.0,47,0.00,CLR,CLR,0.00,WeatherDisplay:10.37,2013-01-12 09:06:00,
2013-01-12 03:11:00,21.9,4.3,28.73,West,270,0.0,0.0,46,0.00,CLR,CLR,0.00,WeatherDisplay:10.37,2013-01-12 09:11:00,
2013-01-12 03:16:00,21.7,4.1,28.73,West,270,0.0,0.0,46,0.00,CLR,CLR,0.00,WeatherDisplay:10.37,2013-01-12 09:16:00,
2013-01-12 03:21:00,21.6,4.4,28.73,West,270,0.0,0.0,47,0.00,CLR,CLR,0.00,WeatherDisplay:10.37,2013-01-12 09:21:00,
2013-01-12 03:26:00,21.4,4.2,28.73,WSW,248,0.0,0.0,47,0.00,CLR,CLR,0.00,WeatherDisplay:10.37,2013-01-12 09:26:00,
2013-01-12 03:31:00,21.4,4.2,28.73,West,270,2.6,0.0,47,0.00,CLR,CLR,0.00,WeatherDisplay:10.37,2013-01-12 09:31:00,
2013-01-12 03:36:00,21.4,3.8,28.73,WSW,248,0.0,0.0,46,0.00,CLR,CLR,0.00,WeatherDisplay:10.37,2013-01-12 09:36:00,
2013-01-12 03:41:00,21.2,4.1,28.73,NW,315,0.0,0.0,47,0.00,CLR,CLR,0.00,WeatherDisplay:10.37,2013-01-12 09:41:00,
2013-01-12 03:46:00,21.2,4.1,28.73,NW,315,0.0,0.0,47,0.00,CLR,CLR,0.00,WeatherDisplay:10.37,2013-01-12 09:46:00,
2013-01-12 03:51:00,21.2,4.5,28.73,West,270,2.2,0.0,48,0.00,CLR,CLR,0.00,WeatherDisplay:10.37,2013-01-12 09:51:00,
2013-01-12 03:56:00,21.2,4.5,28.73,WSW,248,0.0,0.0,48,0.00,CLR,CLR,0.00,WeatherDisplay:10.37,2013-01-12 09:56:00,
2013-01-12 04:01:00,21.2,5.0,28.73,WSW,248,0.0,0.0,49,0.00,CLR,CLR,0.00,WeatherDisplay:10.37,2013-01-12 10:01:00,
2013-01-12 04:06:00,21.0,5.3,28.73,WSW,248,0.0,0.0,50,0.00,CLR,CLR,0.00,WeatherDisplay:10.37,2013-01-12 10:06:00,
2013-01-12 04:11:00,21.0,5.3,28.73,West,270,0.0,0.0,50,0.00,CLR,CLR,0.00,WeatherDisplay:10.37,2013-01-12 10:11:00,
2013-01-12 04:16:00,21.0,5.7,28.73,West,270,0.0,0.0,51,0.00,CLR,CLR,0.00,WeatherDisplay:10.37,2013-01-12 10:16:00,
2013-01-12 04:21:00,20.8,6.0,28.73,SW,225,0.0,0.0,52,0.00,CLR,CLR,0.00,WeatherDisplay:10.37,2013-01-12 10:21:00,
2013-01-12 04:26:00,20.8,6.4,28.73,SW,225,0.0,0.0,53,0.00,CLR,CLR,0.00,WeatherDisplay:10.37,2013-01-12 10:26:00,
2013-01-12 04:31:00,20.7,6.2,28.73,SW,225,0.0,0.0,53,0.00,CLR,CLR,0.00,WeatherDisplay:10.37,2013-01-12 10:31:00,
2013-01-12 04:36:00,20.8,6.4,28.73,SW,225,0.0,0.0,53,0.00,CLR,CLR,0.00,WeatherDisplay:10.37,2013-01-12 10:36:00,
2013-01-12 04:42:00,20.7,6.2,28.73,WSW,248,0.0,0.0,53,0.00,CLR,CLR,0.00,WeatherDisplay:10.37,2013-01-12 10:42:00,
2013-01-12 04:47:00,20.7,6.2,28.76,WSW,248,0.0,0.0,53,0.00,CLR,CLR,0.00,WeatherDisplay:10.37,2013-01-12 10:47:00,
2013-01-12 04:52:00,20.5,6.0,28.76,SW,225,0.0,0.0,53,0.00,CLR,CLR,0.00,WeatherDisplay:10.37,2013-01-12 10:52:00,
2013-01-12 04:57:00,20.5,6.0,28.76,SW,225,0.0,0.0,53,0.00,CLR,CLR,0.00,WeatherDisplay:10.37,2013-01-12 10:57:00,
2013-01-12 05:02:00,20.3,5.5,28.76,WSW,248,0.0,0.0,52,0.00,CLR,CLR,0.00,WeatherDisplay:10.37,2013-01-12 11:02:00,
2013-01-12 05:07:00,20.1,5.3,28.76,WSW,248,0.0,0.0,52,0.00,CLR,CLR,0.00,WeatherDisplay:10.37,2013-01-12 11:07:00,
2013-01-12 05:12:00,19.9,5.1,28.76,SSW,202,0.0,0.0,52,0.00,CLR,CLR,0.00,WeatherDisplay:10.37,2013-01-12 11:12:00,
2013-01-12 05:17:00,19.9,5.1,28.76,SW,225,0.0,0.0,52,0.00,CLR,CLR,0.00,WeatherDisplay:10.37,2013-01-12 11:17:00,
2013-01-12 05:22:00,19.9,4.7,28.76,SW,225,0.0,3.6,51,0.00,CLR,CLR,0.00,WeatherDisplay:10.37,2013-01-12 11:22:00,
2013-01-12 05:27:00,19.8,4.5,28.76,WSW,248,0.0,0.0,51,0.00,CLR,CLR,0.00,WeatherDisplay:10.37,2013-01-12 11:27:00,
2013-01-12 05:32:00,19.4,4.2,28.76,WSW,248,0.0,0.0,51,0.00,CLR,CLR,0.00,WeatherDisplay:10.37,2013-01-12 11:32:00,
2013-01-12 05:37:00,19.2,3.6,28.76,WSW,248,2.6,0.0,50,0.00,CLR,CLR,0.00,WeatherDisplay:10.37,2013-01-12 11:37:00,
2013-01-12 05:42:00,19.0,3.0,28.76,SW,225,0.0,0.0,49,0.00,CLR,CLR,0.00,WeatherDisplay:10.37,2013-01-12 11:42:00,
2013-01-12 05:47:00,18.9,2.8,28.76,WSW,248,0.0,0.0,49,0.00,CLR,CLR,0.00,WeatherDisplay:10.37,2013-01-12 11:47:00,
2013-01-12 05:52:00,18.7,2.7,28.76,SW,225,0.0,0.0,49,0.00,CLR,CLR,0.00,WeatherDisplay:10.37,2013-01-12 11:52:00,
2013-01-12 05:57:00,18.5,2.9,28.76,SW,225,0.0,0.0,50,0.00,CLR,CLR,0.00,WeatherDisplay:10.37,2013-01-12 11:57:00,
2013-01-12 06:02:00,18.5,2.9,28.79,SW,225,0.0,0.0,50,0.00,CLR,CLR,0.00,WeatherDisplay:10.37,2013-01-12 12:02:00,
2013-01-12 06:07:00,18.5,2.9,28.79,WSW,248,0.0,0.0,50,0.00,CLR,CLR,0.00,WeatherDisplay:10.37,2013-01-12 12:07:00,
2013-01-12 06:12:00,18.3,3.2,28.79,WSW,248,2.3,0.0,51,0.00,CLR,CLR,0.00,WeatherDisplay:10.37,2013-01-12 12:12:00,
2013-01-12 06:17:00,18.3,3.2,28.79,WSW,248,0.0,0.0,51,0.00,CLR,CLR,0.00,WeatherDisplay:10.37,2013-01-12 12:17:00,
2013-01-12 06:22:00,18.1,3.0,28.79,West,270,0.0,0.0,51,0.00,CLR,CLR,0.00,WeatherDisplay:10.37,2013-01-12 12:22:00,
2013-01-12 06:27:00,18.0,2.9,28.79,West,270,0.0,0.0,51,0.00,CLR,CLR,0.00,WeatherDisplay:10.37,2013-01-12 12:27:00,
2013-01-12 06:32:00,17.8,2.7,28.79,West,270,0.0,0.0,51,0.00,CLR,CLR,0.00,WeatherDisplay:10.37,2013-01-12 12:32:00,
2013-01-12 06:37:00,17.8,2.7,28.79,WSW,248,0.0,0.0,51,0.00,CLR,CLR,0.00,WeatherDisplay:10.37,2013-01-12 12:37:00,
2013-01-12 06:42:00,17.8,2.7,28.79,SW,225,0.0,0.0,51,0.00,CLR,CLR,0.00,WeatherDisplay:10.37,2013-01-12 12:42:00,
2013-01-12 06:47:00,17.4,2.8,28.79,SW,225,0.0,0.0,52,0.00,CLR,CLR,0.00,WeatherDisplay:10.37,2013-01-12 12:47:00,
2013-01-12 06:52:00,17.4,3.2,28.79,West,270,0.0,0.0,53,0.00,CLR,CLR,0.00,WeatherDisplay:10.37,2013-01-12 12:52:00,
2013-01-12 06:57:00,17.2,3.0,28.79,SW,225,0.0,0.0,53,0.00,CLR,CLR,0.00,WeatherDisplay:10.37,2013-01-12 12:57:00,
2013-01-12 07:02:00,17.2,3.0,28.79,SW,225,0.0,0.0,53,0.00,CLR,CLR,0.00,WeatherDisplay:10.37,2013-01-12 13:02:00,
2013-01-12 07:07:00,17.1,3.3,28.79,SW,225,0.0,0.0,54,0.00,CLR,CLR,0.00,WeatherDisplay:10.37,2013-01-12 13:07:00,
2013-01-12 07:12:00,17.1,3.3,28.79,WSW,248,0.0,0.0,54,0.00,CLR,CLR,0.00,WeatherDisplay:10.37,2013-01-12 13:12:00,
2013-01-12 07:17:00,17.1,3.3,28.82,WSW,248,0.0,0.0,54,0.00,CLR,CLR,0.00,WeatherDisplay:10.37,2013-01-12 13:17:00,
2013-01-12 07:22:00,16.9,3.1,28.82,SW,225,0.0,0.0,54,0.00,CLR,CLR,0.00,WeatherDisplay:10.37,2013-01-12 13:22:00,
2013-01-12 07:27:00,16.9,3.1,28.82,SW,225,0.0,0.0,54,0.00,CLR,CLR,0.00,WeatherDisplay:10.37,2013-01-12 13:27:00,
2013-01-12 07:32:00,16.9,3.1,28.82,SW,225,0.0,0.0,54,0.00,CLR,CLR,0.00,WeatherDisplay:10.37,2013-01-12 13:32:00,
2013-01-12 07:37:00,16.7,2.9,28.82,SW,225,0.0,0.0,54,0.00,CLR,CLR,0.00,WeatherDisplay:10.37,2013-01-12 13:37:00,
2013-01-12 07:42:00,16.7,2.5,28.82,SW,225,2.3,0.0,53,0.00,CLR,CLR,0.00,WeatherDisplay:10.37,2013-01-12 13:42:00,
2013-01-12 07:47:00,16.7,2.1,28.82,West,270,0.0,0.0,52,0.00,CLR,CLR,0.00,WeatherDisplay:10.37,2013-01-12 13:47:00,
2013-01-12 07:52:00,16.5,1.9,28.82,West,270,0.0,0.0,52,0.00,CLR,CLR,0.00,WeatherDisplay:10.37,2013-01-12 13:52:00,
2013-01-12 07:57:00,16.5,1.9,28.82,SW,225,2.6,0.0,52,0.00,CLR,CLR,0.00,WeatherDisplay:10.37,2013-01-12 13:57:00,
2013-01-12 08:02:00,16.5,2.3,28.85,WNW,292,0.0,0.0,53,0.00,CLR,CLR,0.00,WeatherDisplay:10.37,2013-01-12 14:02:00,
2013-01-12 08:07:00,16.3,2.2,28.85,SW,225,0.0,0.0,53,0.00,CLR,CLR,0.00,WeatherDisplay:10.37,2013-01-12 14:07:00,
2013-01-12 08:12:00,16.2,2.0,28.85,WSW,248,0.0,0.0,53,0.00,CLR,CLR,0.00,WeatherDisplay:10.37,2013-01-12 14:12:00,
2013-01-12 08:17:00,16.2,1.6,28.85,West,270,0.0,0.0,52,0.00,CLR,CLR,0.00,WeatherDisplay:10.37,2013-01-12 14:17:00,
2013-01-12 08:22:00,16.2,0.8,28.85,SW,225,0.0,0.0,50,0.00,CLR,CLR,0.00,WeatherDisplay:10.37,2013-01-12 14:22:00,
2013-01-12 08:27:00,16.5,1.1,28.85,WSW,248,0.0,0.0,50,0.00,CLR,CLR,0.00,WeatherDisplay:10.37,2013-01-12 14:27:00,
2013-01-12 08:32:00,16.5,0.7,28.85,West,270,0.0,0.0,49,0.00,CLR,CLR,0.00,WeatherDisplay:10.37,2013-01-12 14:32:00,
2013-01-12 08:37:00,16.7,0.4,28.85,WSW,248,0.0,0.0,48,0.00,CLR,CLR,0.00,WeatherDisplay:10.37,2013-01-12 14:37:00,
2013-01-12 08:42:00,16.7,-0.1,28.85,West,270,0.0,0.0,47,0.00,CLR,CLR,0.00,WeatherDisplay:10.37,2013-01-12 14:42:00,
2013-01-12 08:47:00,17.1,0.3,28.85,SW,225,0.0,0.0,47,0.00,CLR,CLR,0.00,WeatherDisplay:10.37,2013-01-12 14:47:00,
2013-01-12 08:52:00,17.1,-0.2,28.85,WSW,248,0.0,0.0,46,0.00,CLR,CLR,0.00,WeatherDisplay:10.37,2013-01-12 14:52:00,
2013-01-12 08:57:00,17.1,-0.7,28.85,WSW,248,4.5,0.0,45,0.00,CLR,CLR,0.00,WeatherDisplay:10.37,2013-01-12 14:57:00,
2013-01-12 09:02:00,17.4,-0.3,28.85,West,270,2.6,0.0,45,0.00,CLR,CLR,0.00,WeatherDisplay:10.37,2013-01-12 15:02:00,
2013-01-12 09:07:00,17.6,-0.2,28.85,West,270,0.0,0.0,45,0.00,CLR,CLR,0.00,WeatherDisplay:10.37,2013-01-12 15:07:00,
2013-01-12 09:12:00,17.8,-0.5,28.85,West,270,0.0,0.0,44,0.00,CLR,CLR,0.00,WeatherDisplay:10.37,2013-01-12 15:12:00,
2013-01-12 09:17:00,18.0,-0.3,28.88,West,270,3.5,0.0,44,0.00,CLR,CLR,0.00,WeatherDisplay:10.37,2013-01-12 15:17:00,
2013-01-12 09:22:00,17.8,-1.0,28.88,SW,225,8.1,8.1,43,0.00,CLR,CLR,0.00,WeatherDisplay:10.37,2013-01-12 15:22:00,
2013-01-12 09:27:00,18.1,-0.6,28.88,WSW,248,4.6,0.0,43,0.00,CLR,CLR,0.00,WeatherDisplay:10.37,2013-01-12 15:27:00,
2013-01-12 09:32:00,18.3,-1.0,28.88,SW,225,10.9,0.0,42,0.00,CLR,CLR,0.00,WeatherDisplay:10.37,2013-01-12 15:32:00,
2013-01-12 09:37:00,18.0,-1.3,28.88,SSW,202,2.3,0.0,42,0.00,CLR,CLR,0.00,WeatherDisplay:10.37,2013-01-12 15:37:00,
2013-01-12 09:42:00,18.1,-1.7,28.88,WNW,292,4.9,4.9,41,0.00,CLR,CLR,0.00,WeatherDisplay:10.37,2013-01-12 15:42:00,
2013-01-12 09:47:00,18.3,-2.0,28.88,SW,225,2.6,0.0,40,0.00,CLR,CLR,0.00,WeatherDisplay:10.37,2013-01-12 15:47:00,
2013-01-12 09:52:00,18.5,-1.8,28.88,SW,225,9.2,9.2,40,0.00,CLR,CLR,0.00,WeatherDisplay:10.37,2013-01-12 15:52:00,
2013-01-12 09:57:00,18.5,-2.4,28.88,WNW,292,2.6,0.0,39,0.00,CLR,CLR,0.00,WeatherDisplay:10.37,2013-01-12 15:57:00,
2013-01-12 10:02:00,18.3,-2.0,28.88,SW,225,3.5,0.0,40,0.00,CLR,CLR,0.00,WeatherDisplay:10.37,2013-01-12 16:02:00,
2013-01-12 10:07:00,18.3,-2.0,28.88,SW,225,5.8,5.8,40,0.00,CLR,CLR,0.00,WeatherDisplay:10.37,2013-01-12 16:07:00,
2013-01-12 10:12:00,18.1,-2.2,28.88,WNW,292,8.1,8.1,40,0.00,CLR,CLR,0.00,WeatherDisplay:10.37,2013-01-12 16:12:00,
2013-01-12 10:17:00,19.2,-1.2,28.88,West,270,4.6,0.0,40,0.00,CLR,CLR,0.00,WeatherDisplay:10.37,2013-01-12 16:17:00,
2013-01-12 10:22:00,19.4,-1.0,28.88,SW,225,8.3,8.3,40,0.00,CLR,CLR,0.00,WeatherDisplay:10.37,2013-01-12 16:22:00,
2013-01-12 10:27:00,19.6,-1.4,28.88,WSW,248,8.1,0.0,39,0.00,CLR,CLR,0.00,WeatherDisplay:10.37,2013-01-12 16:27:00,
2013-01-12 10:32:00,19.2,-1.2,28.88,SW,225,12.8,12.8,40,0.00,CLR,CLR,0.00,WeatherDisplay:10.37,2013-01-12 16:32:00,
2013-01-12 10:37:00,19.9,-0.5,28.88,West,270,2.6,0.0,40,0.00,CLR,CLR,0.00,WeatherDisplay:10.37,2013-01-12 16:37:00,
2013-01-12 10:42:00,20.1,-0.4,28.88,SW,225,8.1,0.0,40,0.00,CLR,CLR,0.00,WeatherDisplay:10.37,2013-01-12 16:42:00,
2013-01-12 10:47:00,19.9,-1.1,28.88,SW,225,8.3,8.3,39,0.00,CLR,CLR,0.00,WeatherDisplay:10.37,2013-01-12 16:47:00,
2013-01-12 10:52:00,19.6,-2.5,28.88,West,270,0.0,0.0,37,0.00,CLR,CLR,0.00,WeatherDisplay:10.37,2013-01-12 16:52:00,
2013-01-12 10:57:00,20.3,-1.9,28.88,NW,315,4.6,0.0,37,0.00,CLR,CLR,0.00,WeatherDisplay:10.37,2013-01-12 16:57:00,
2013-01-12 11:02:00,19.4,-2.7,28.91,SW,225,8.3,8.3,37,0.00,CLR,CLR,0.00,WeatherDisplay:10.37,2013-01-12 17:02:00,
2013-01-12 11:07:00,19.9,-2.2,28.91,WSW,248,10.5,10.5,37,0.00,CLR,CLR,0.00,WeatherDisplay:10.37,2013-01-12 17:07:00,
2013-01-12 11:12:00,20.5,-1.1,28.91,West,270,0.0,0.0,38,0.00,CLR,CLR,0.00,WeatherDisplay:10.37,2013-01-12 17:12:00,
2013-01-12 11:17:00,20.5,-1.7,28.88,SW,225,5.8,0.0,37,0.00,CLR,CLR,0.00,WeatherDisplay:10.37,2013-01-12 17:17:00,
2013-01-12 11:22:00,20.5,-1.7,28.88,SW,225,13.2,13.2,37,0.00,CLR,CLR,0.00,WeatherDisplay:10.37,2013-01-12 17:22:00,
2013-01-12 11:27:00,20.5,-1.7,28.88,WSW,248,6.9,0.0,37,0.00,CLR,CLR,0.00,WeatherDisplay:10.37,2013-01-12 17:27:00,
2013-01-12 11:32:00,20.3,-1.9,28.88,West,270,4.6,0.0,37,0.00,CLR,CLR,0.00,WeatherDisplay:10.37,2013-01-12 17:32:00,
2013-01-12 11:37:00,20.8,-0.8,28.88,SW,225,4.5,0.0,38,0.00,CLR,CLR,0.00,WeatherDisplay:10.37,2013-01-12 17:37:00,
2013-01-12 11:42:00,21.0,-0.7,28.88,NW,315,10.4,10.4,38,0.00,CLR,CLR,0.00,WeatherDisplay:10.37,2013-01-12 17:42:00,
2013-01-12 11:47:00,20.3,-1.9,28.88,SW,225,12.8,12.8,37,0.00,CLR,CLR,0.00,WeatherDisplay:10.37,2013-01-12 17:47:00,
2013-01-12 11:52:00,21.2,-1.1,28.88,WSW,248,2.3,0.0,37,0.00,CLR,CLR,0.00,WeatherDisplay:10.37,2013-01-12 17:52:00,
2013-01-12 11:57:00,21.4,-1.5,28.88,WSW,248,3.1,0.0,36,0.00,CLR,CLR,0.00,WeatherDisplay:10.37,2013-01-12 17:57:00,
2013-01-12 12:02:00,21.0,-1.8,28.88,WSW,248,8.1,8.1,36,0.00,CLR,CLR,0.00,WeatherDisplay:10.37,2013-01-12 18:02:00,
2013-01-12 12:07:00,20.7,-2.1,28.88,West,270,8.1,8.1,36,0.00,CLR,CLR,0.00,WeatherDisplay:10.37,2013-01-12 18:07:00,
2013-01-12 12:12:00,21.0,-1.8,28.88,WSW,248,13.8,13.8,36,0.00,CLR,CLR,0.00,WeatherDisplay:10.37,2013-01-12 18:12:00,
2013-01-12 12:17:00,21.2,-1.6,28.85,WNW,292,8.3,8.3,36,0.00,CLR,CLR,0.00,WeatherDisplay:10.37,2013-01-12 18:17:00,
2013-01-12 12:22:00,20.8,-2.6,28.85,WNW,292,10.4,10.4,35,0.00,CLR,CLR,0.00,WeatherDisplay:10.37,2013-01-12 18:22:00,
2013-01-12 12:27:00,21.0,-2.4,28.85,WSW,248,3.1,0.0,35,0.00,CLR,CLR,0.00,WeatherDisplay:10.37,2013-01-12 18:27:00,
2013-01-12 12:32:00,20.8,-2.6,28.85,NW,315,5.9,5.9,35,0.00,CLR,CLR,0.00,WeatherDisplay:10.37,2013-01-12 18:32:00,
2013-01-12 12:37:00,20.7,-2.7,28.85,SW,225,2.3,0.0,35,0.00,CLR,CLR,0.00,WeatherDisplay:10.37,2013-01-12 18:37:00,
2013-01-12 12:42:00,20.7,-2.7,28.85,West,270,8.1,8.1,35,0.00,CLR,CLR,0.00,WeatherDisplay:10.37,2013-01-12 18:42:00,
2013-01-12 12:47:00,21.0,-1.8,28.85,NW,315,0.0,0.0,36,0.00,CLR,CLR,0.00,WeatherDisplay:10.37,2013-01-12 18:47:00,
2013-01-12 12:52:00,21.0,-1.8,28.85,West,270,4.5,4.5,36,0.00,CLR,CLR,0.00,WeatherDisplay:10.37,2013-01-12 18:52:00,
2013-01-12 12:57:00,21.4,-1.5,28.85,NW,315,5.8,0.0,36,0.00,CLR,CLR,0.00,WeatherDisplay:10.37,2013-01-12 18:57:00,
2013-01-12 13:02:00,21.4,-1.5,28.85,West,270,6.9,0.0,36,0.00,CLR,CLR,0.00,WeatherDisplay:10.37,2013-01-12 19:02:00,
2013-01-12 13:07:00,20.8,-2.0,28.85,West,270,8.3,8.3,36,0.00,CLR,CLR,0.00,WeatherDisplay:10.37,2013-01-12 19:07:00,
2013-01-12 13:12:00,20.8,-1.4,28.85,West,270,6.9,0.0,37,0.00,CLR,CLR,0.00,WeatherDisplay:10.37,2013-01-12 19:12:00,
2013-01-12 13:17:00,20.8,-1.4,28.85,WNW,292,2.3,2.6,37,0.00,CLR,CLR,0.00,WeatherDisplay:10.37,2013-01-12 19:17:00,
2013-01-12 13:22:00,20.7,-1.5,28.85,NW,315,8.3,8.3,37,0.00,CLR,CLR,0.00,WeatherDisplay:10.37,2013-01-12 19:22:00,
2013-01-12 13:27:00,20.8,-1.4,28.85,NW,315,9.7,9.7,37,0.00,CLR,CLR,0.00,WeatherDisplay:10.37,2013-01-12 19:27:00,
2013-01-12 13:32:00,20.7,-1.5,28.82,West,270,9.7,9.7,37,0.00,CLR,CLR,0.00,WeatherDisplay:10.37,2013-01-12 19:32:00,
2013-01-12 13:37:00,20.8,-1.4,28.82,SW,225,3.6,0.0,37,0.00,CLR,CLR,0.00,WeatherDisplay:10.37,2013-01-12 19:37:00,
2013-01-12 13:42:00,21.0,-1.2,28.82,WNW,292,4.9,0.0,37,0.00,CLR,CLR,0.00,WeatherDisplay:10.37,2013-01-12 19:42:00,
2013-01-12 13:47:00,21.4,-1.5,28.85,West,270,12.8,0.0,36,0.00,CLR,CLR,0.00,WeatherDisplay:10.37,2013-01-12 19:47:00,
2013-01-12 13:52:00,20.7,-2.1,28.85,WSW,248,11.8,11.8,36,0.00,CLR,CLR,0.00,WeatherDisplay:10.37,2013-01-12 19:52:00,
2013-01-12 13:57:00,20.8,-2.0,28.85,WSW,248,4.6,0.0,36,0.00,CLR,CLR,0.00,WeatherDisplay:10.37,2013-01-12 19:57:00,
2013-01-12 14:02:00,20.8,-2.0,28.85,West,270,6.9,6.9,36,0.00,CLR,CLR,0.00,WeatherDisplay:10.37,2013-01-12 20:02:00,
2013-01-12 14:07:00,21.0,-1.2,28.85,WSW,248,5.8,5.8,37,0.00,CLR,CLR,0.00,WeatherDisplay:10.37,2013-01-12 20:07:00,
2013-01-12 14:12:00,21.0,-1.2,28.85,West,270,3.6,3.6,37,0.00,CLR,CLR,0.00,WeatherDisplay:10.37,2013-01-12 20:12:00,
2013-01-12 14:17:00,20.8,-1.4,28.85,West,270,6.2,0.0,37,0.00,CLR,CLR,0.00,WeatherDisplay:10.37,2013-01-12 20:17:00,
2013-01-12 14:22:00,20.7,-1.5,28.85,WNW,292,10.4,10.4,37,0.00,CLR,CLR,0.00,WeatherDisplay:10.37,2013-01-12 20:22:00,
2013-01-12 14:27:00,21.2,-1.1,28.85,SW,225,3.6,0.0,37,0.00,CLR,CLR,0.00,WeatherDisplay:10.37,2013-01-12 20:27:00,
2013-01-12 14:32:00,20.8,-1.4,28.85,West,270,5.9,5.9,37,0.00,CLR,CLR,0.00,WeatherDisplay:10.37,2013-01-12 20:32:00,
2013-01-12 14:37:00,20.5,-1.7,28.85,West,270,4.9,4.9,37,0.00,CLR,CLR,0.00,WeatherDisplay:10.37,2013-01-12 20:37:00,
2013-01-12 14:42:00,20.5,-1.7,28.85,West,270,4.9,4.9,37,0.00,CLR,CLR,0.00,WeatherDisplay:10.37,2013-01-12 20:42:00,
2013-01-12 14:47:00,20.7,-1.5,28.85,West,270,6.9,6.9,37,0.00,CLR,CLR,0.00,WeatherDisplay:10.37,2013-01-12 20:47:00,
2013-01-12 14:52:00,20.3,-1.9,28.85,NW,315,4.6,0.0,37,0.00,CLR,CLR,0.00,WeatherDisplay:10.37,2013-01-12 20:52:00,
2013-01-12 14:57:00,20.7,-1.0,28.85,West,270,8.1,8.1,38,0.00,CLR,CLR,0.00,WeatherDisplay:10.37,2013-01-12 20:57:00,
2013-01-12 15:02:00,20.7,-1.5,28.85,West,270,5.9,5.9,37,0.00,CLR,CLR,0.00,WeatherDisplay:10.37,2013-01-12 21:02:00,
2013-01-12 15:07:00,20.7,-1.5,28.85,West,270,8.1,8.1,37,0.00,CLR,CLR,0.00,WeatherDisplay:10.37,2013-01-12 21:07:00,
2013-01-12 15:12:00,20.5,-1.7,28.85,NNW,338,0.0,0.0,37,0.00,CLR,CLR,0.00,WeatherDisplay:10.37,2013-01-12 21:12:00,
2013-01-12 15:17:00,20.1,-1.5,28.85,WNW,292,9.2,9.2,38,0.00,CLR,CLR,0.00,WeatherDisplay:10.37,2013-01-12 21:17:00,
2013-01-12 15:22:00,20.1,-1.5,28.85,WNW,292,2.3,0.0,38,0.00,CLR,CLR,0.00,WeatherDisplay:10.37,2013-01-12 21:22:00,
2013-01-12 15:27:00,20.1,-1.5,28.85,West,270,4.0,0.0,38,0.00,CLR,CLR,0.00,WeatherDisplay:10.37,2013-01-12 21:27:00,
2013-01-12 15:32:00,20.1,-1.5,28.85,West,270,8.1,8.1,38,0.00,CLR,CLR,0.00,WeatherDisplay:10.37,2013-01-12 21:32:00,
2013-01-12 15:37:00,20.3,-1.3,28.85,NW,315,2.3,0.0,38,0.00,CLR,CLR,0.00,WeatherDisplay:10.37,2013-01-12 21:37:00,
2013-01-12 15:42:00,20.7,-0.4,28.85,WNW,292,0.0,0.0,39,0.00,CLR,CLR,0.00,WeatherDisplay:10.37,2013-01-12 21:42:00,
2013-01-12 15:47:00,20.8,-0.8,28.85,North,0,4.6,0.0,38,0.00,CLR,CLR,0.00,WeatherDisplay:10.37,2013-01-12 21:47:00,
2013-01-12 15:52:00,20.5,-1.7,28.85,WNW,292,4.6,4.6,37,0.00,CLR,CLR,0.00,WeatherDisplay:10.37,2013-01-12 21:52:00,
2013-01-12 15:57:00,20.5,-1.7,28.85,NW,315,4.6,0.0,37,0.00,CLR,CLR,0.00,WeatherDisplay:10.37,2013-01-12 21:57:00,
2013-01-12 16:02:00,20.3,-1.3,28.85,WNW,292,2.6,0.0,38,0.00,CLR,CLR,0.00,WeatherDisplay:10.37,2013-01-12 22:02:00,
2013-01-12 16:07:00,20.1,-1.5,28.85,WSW,248,3.1,0.0,38,0.00,CLR,CLR,0.00,WeatherDisplay:10.37,2013-01-12 22:07:00,
2013-01-12 16:12:00,19.9,-1.6,28.85,WSW,248,2.6,0.0,38,0.00,CLR,CLR,0.00,WeatherDisplay:10.37,2013-01-12 22:12:00,
2013-01-12 16:17:00,19.6,-1.4,28.85,West,270,2.6,0.0,39,0.00,CLR,CLR,0.00,WeatherDisplay:10.37,2013-01-12 22:17:00,
2013-01-12 16:22:00,19.4,-1.6,28.85,WNW,292,2.6,0.0,39,0.00,CLR,CLR,0.00,WeatherDisplay:10.37,2013-01-12 22:22:00,
2013-01-12 16:27:00,19.4,-1.0,28.85,WNW,292,4.6,4.6,40,0.00,CLR,CLR,0.00,WeatherDisplay:10.37,2013-01-12 22:27:00,
2013-01-12 16:33:00,19.4,-1.0,28.85,NW,315,0.0,0.0,40,0.00,CLR,CLR,0.00,WeatherDisplay:10.37,2013-01-12 22:33:00,
2013-01-12 16:38:00,19.2,-1.2,28.85,WNW,292,3.6,0.0,40,0.00,CLR,CLR,0.00,WeatherDisplay:10.37,2013-01-12 22:38:00,
2013-01-12 16:43:00,18.9,-1.5,28.85,West,270,2.3,0.0,40,0.00,CLR,CLR,0.00,WeatherDisplay:10.37,2013-01-12 22:43:00,
2013-01-12 16:48:00,18.9,-1.5,28.85,WNW,292,7.1,7.1,40,0.00,CLR,CLR,0.00,WeatherDisplay:10.37,2013-01-12 22:48:00,
2013-01-12 16:53:00,18.7,-1.7,28.85,West,270,0.0,0.0,40,0.00,CLR,CLR,0.00,WeatherDisplay:10.37,2013-01-12 22:53:00,
2013-01-12 16:58:00,18.7,-1.2,28.85,West,270,0.0,0.0,41,0.00,CLR,CLR,0.00,WeatherDisplay:10.37,2013-01-12 22:58:00,
2013-01-12 17:03:00,18.5,-1.3,28.88,West,270,4.6,0.0,41,0.00,CLR,CLR,0.00,WeatherDisplay:10.37,2013-01-12 23:03:00,
2013-01-12 17:08:00,18.5,-0.8,28.88,WNW,292,2.6,0.0,42,0.00,CLR,CLR,0.00,WeatherDisplay:10.37,2013-01-12 23:08:00,
2013-01-12 17:13:00,18.1,-1.1,28.88,West,270,5.8,5.8,42,0.00,CLR,CLR,0.00,WeatherDisplay:10.37,2013-01-12 23:13:00,
2013-01-12 17:18:00,18.1,-1.1,28.88,WNW,292,0.0,0.0,42,0.00,CLR,CLR,0.00,WeatherDisplay:10.37,2013-01-12 23:18:00,
2013-01-12 17:23:00,18.1,-0.6,28.88,WNW,292,2.3,0.0,43,0.00,CLR,CLR,0.00,WeatherDisplay:10.37,2013-01-12 23:23:00,
2013-01-12 17:28:00,17.8,-1.0,28.88,WNW,292,2.3,0.0,43,0.00,CLR,CLR,0.00,WeatherDisplay:10.37,2013-01-12 23:28:00,
2013-01-12 17:33:00,17.8,-1.0,28.88,NW,315,0.0,0.0,43,0.00,CLR,CLR,0.00,WeatherDisplay:10.37,2013-01-12 23:33:00,
2013-01-12 17:38:00,17.4,-1.3,28.88,West,270,0.0,0.0,43,0.00,CLR,CLR,0.00,WeatherDisplay:10.37,2013-01-12 23:38:00,
2013-01-12 17:43:00,17.4,-1.3,28.88,West,270,4.6,0.0,43,0.00,CLR,CLR,0.00,WeatherDisplay:10.37,2013-01-12 23:43:00,
2013-01-12 17:48:00,17.1,-1.1,28.88,West,270,0.0,0.0,44,0.00,CLR,CLR,0.00,WeatherDisplay:10.37,2013-01-12 23:48:00,
2013-01-12 17:53:00,17.1,-1.1,28.88,West,270,2.3,0.0,44,0.00,CLR,CLR,0.00,WeatherDisplay:10.37,2013-01-12 23:53:00,
2013-01-12 17:58:00,16.9,-1.3,28.88,WNW,292,4.6,0.0,44,0.00,CLR,CLR,0.00,WeatherDisplay:10.37,2013-01-12 23:58:00,
2013-01-12 18:03:00,16.7,-1.5,28.91,WNW,292,9.2,9.2,44,0.00,CLR,CLR,0.00,WeatherDisplay:10.37,2013-01-13 00:03:00,
2013-01-12 18:08:00,16.5,-1.6,28.91,NW,315,0.0,0.0,44,0.00,CLR,CLR,0.00,WeatherDisplay:10.37,2013-01-13 00:08:00,
2013-01-12 18:13:00,16.3,-1.8,28.91,West,270,0.0,0.0,44,0.00,CLR,CLR,0.00,WeatherDisplay:10.37,2013-01-13 00:13:00,
2013-01-12 18:18:00,16.2,-2.0,28.91,NW,315,0.0,0.0,44,0.00,CLR,CLR,0.00,WeatherDisplay:10.37,2013-01-13 00:18:00,
2013-01-12 18:24:00,16.2,-2.0,28.91,NW,315,0.0,0.0,44,0.00,CLR,CLR,0.00,WeatherDisplay:10.37,2013-01-13 00:24:00,
2013-01-12 18:29:00,16.0,-2.1,28.91,WNW,292,0.0,0.0,44,0.00,CLR,CLR,0.00,WeatherDisplay:10.37,2013-01-13 00:29:00,
2013-01-12 18:34:00,16.0,-2.1,28.88,NW,315,0.0,0.0,44,0.00,CLR,CLR,0.00,WeatherDisplay:10.37,2013-01-13 00:34:00,
2013-01-12 18:39:00,16.0,-2.1,28.88,WNW,292,0.0,0.0,44,0.00,CLR,CLR,0.00,WeatherDisplay:10.37,2013-01-13 00:39:00,
2013-01-12 18:44:00,16.0,-2.1,28.88,NW,315,0.0,0.0,44,0.00,CLR,CLR,0.00,WeatherDisplay:10.37,2013-01-13 00:44:00,
2013-01-12 18:49:00,16.0,-2.1,28.88,WNW,292,0.0,0.0,44,0.00,CLR,CLR,0.00,WeatherDisplay:10.37,2013-01-13 00:49:00,
2013-01-12 18:54:00,15.8,-2.3,28.88,NW,315,0.0,0.0,44,0.00,CLR,CLR,0.00,WeatherDisplay:10.37,2013-01-13 00:54:00,
2013-01-12 18:59:00,16.0,-2.1,28.88,NW,315,0.0,0.0,44,0.00,CLR,CLR,0.00,WeatherDisplay:10.37,2013-01-13 00:59:00,
2013-01-12 19:04:00,16.0,-2.1,28.91,WNW,292,0.0,0.0,44,0.00,CLR,CLR,0.00,WeatherDisplay:10.37,2013-01-13 01:04:00,
2013-01-12 19:09:00,16.0,-2.1,28.91,NW,315,0.0,0.0,44,0.00,CLR,CLR,0.00,WeatherDisplay:10.37,2013-01-13 01:09:00,
2013-01-12 19:14:00,16.0,-2.1,28.91,NW,315,0.0,0.0,44,0.00,CLR,CLR,0.00,WeatherDisplay:10.37,2013-01-13 01:14:00,
2013-01-12 19:19:00,15.8,-1.8,28.91,NW,315,0.0,0.0,45,0.00,CLR,CLR,0.00,WeatherDisplay:10.37,2013-01-13 01:19:00,
2013-01-12 19:24:00,15.8,-1.8,28.91,NW,315,0.0,0.0,45,0.00,CLR,CLR,0.00,WeatherDisplay:10.37,2013-01-13 01:24:00,
2013-01-12 19:29:00,15.8,-1.8,28.88,NNW,338,0.0,0.0,45,0.00,CLR,CLR,0.00,WeatherDisplay:10.37,2013-01-13 01:29:00,
2013-01-12 19:34:00,15.6,-2.0,28.88,NW,315,0.0,0.0,45,0.00,CLR,CLR,0.00,WeatherDisplay:10.37,2013-01-13 01:34:00,
2013-01-12 19:39:00,15.4,-2.2,28.88,NW,315,0.0,0.0,45,0.00,CLR,CLR,0.00,WeatherDisplay:10.37,2013-01-13 01:39:00,
2013-01-12 19:44:00,15.4,-2.2,28.88,WNW,292,0.0,0.0,45,0.00,CLR,CLR,0.00,WeatherDisplay:10.37,2013-01-13 01:44:00,
2013-01-12 19:50:00,15.4,-1.7,28.88,NW,315,0.0,0.0,46,0.00,CLR,CLR,0.00,WeatherDisplay:10.37,2013-01-13 01:50:00,
2013-01-12 19:55:00,15.4,-1.7,28.88,West,270,0.0,0.0,46,0.00,CLR,CLR,0.00,WeatherDisplay:10.37,2013-01-13 01:55:00,
2013-01-12 20:00:00,15.4,-1.7,28.91,West,270,0.0,0.0,46,0.00,CLR,CLR,0.00,WeatherDisplay:10.37,2013-01-13 02:00:00,
2013-01-12 20:05:00,15.4,-1.7,28.91,WNW,292,0.0,0.0,46,0.00,CLR,CLR,0.00,WeatherDisplay:10.37,2013-01-13 02:05:00,
2013-01-12 20:10:00,15.4,-1.7,28.91,WNW,292,0.0,0.0,46,0.00,CLR,CLR,0.00,WeatherDisplay:10.37,2013-01-13 02:10:00,
2013-01-12 20:15:00,15.4,-1.7,28.91,WNW,292,0.0,0.0,46,0.00,CLR,CLR,0.00,WeatherDisplay:10.37,2013-01-13 02:15:00,
2013-01-12 20:20:00,15.4,-1.7,28.91,WNW,292,4.6,0.0,46,0.00,CLR,CLR,0.00,WeatherDisplay:10.37,2013-01-13 02:20:00,
2013-01-12 20:25:00,15.4,-2.2,28.91,NW,315,0.0,0.0,45,0.00,CLR,CLR,0.00,WeatherDisplay:10.37,2013-01-13 02:25:00,
2013-01-12 20:30:00,15.3,-2.3,28.88,West,270,2.3,0.0,45,0.00,CLR,CLR,0.00,WeatherDisplay:10.37,2013-01-13 02:30:00,
2013-01-12 20:35:00,15.3,-2.3,28.88,WNW,292,0.0,0.0,45,0.00,CLR,CLR,0.00,WeatherDisplay:10.37,2013-01-13 02:35:00,
2013-01-12 20:40:00,15.1,-2.5,28.88,NW,315,0.0,0.0,45,0.00,CLR,CLR,0.00,WeatherDisplay:10.37,2013-01-13 02:40:00,
2013-01-12 20:45:00,15.1,-2.5,28.91,West,270,0.0,0.0,45,0.00,CLR,CLR,0.00,WeatherDisplay:10.37,2013-01-13 02:45:00,
2013-01-12 20:50:00,14.9,-2.6,28.91,West,270,0.0,0.0,45,0.00,CLR,CLR,0.00,WeatherDisplay:10.37,2013-01-13 02:50:00,
2013-01-12 20:55:00,14.7,-2.4,28.91,WNW,292,0.0,0.0,46,0.00,CLR,CLR,0.00,WeatherDisplay:10.37,2013-01-13 02:55:00,
2013-01-12 21:00:00,14.5,-2.5,28.91,West,270,0.0,0.0,46,0.00,CLR,CLR,0.00,WeatherDisplay:10.37,2013-01-13 03:00:00,
2013-01-12 21:05:00,14.4,-2.7,28.91,WNW,292,0.0,0.0,46,0.00,CLR,CLR,0.00,WeatherDisplay:10.37,2013-01-13 03:05:00,
2013-01-12 21:10:00,14.4,-2.7,28.91,WNW,292,2.6,0.0,46,0.00,CLR,CLR,0.00,WeatherDisplay:10.37,2013-01-13 03:10:00,
2013-01-12 21:16:00,14.2,-2.8,28.88,WNW,292,0.0,0.0,46,0.00,CLR,CLR,0.00,WeatherDisplay:10.37,2013-01-13 03:16:00,
2013-01-12 21:21:00,14.4,-2.7,28.88,West,270,0.0,0.0,46,0.00,CLR,CLR,0.00,WeatherDisplay:10.37,2013-01-13 03:21:00,
2013-01-12 21:26:00,14.4,-2.7,28.88,West,270,0.0,0.0,46,0.00,CLR,CLR,0.00,WeatherDisplay:10.37,2013-01-13 03:26:00,
2013-01-12 21:32:00,14.2,-2.8,28.91,WNW,292,0.0,0.0,46,0.00,CLR,CLR,0.00,WeatherDisplay:10.37,2013-01-13 03:32:00,
2013-01-12 21:37:00,14.0,-2.6,28.91,West,270,3.1,0.0,47,0.00,CLR,CLR,0.00,WeatherDisplay:10.37,2013-01-13 03:37:00,
2013-01-12 21:42:00,13.8,-2.7,28.91,West,270,5.8,0.0,47,0.00,CLR,CLR,0.00,WeatherDisplay:10.37,2013-01-13 03:42:00,
2013-01-12 21:47:00,13.6,-2.9,28.88,West,270,0.0,0.0,47,0.00,CLR,CLR,0.00,WeatherDisplay:10.37,2013-01-13 03:47:00,
2013-01-12 21:52:00,13.5,-3.1,28.88,WNW,292,4.9,0.0,47,0.00,CLR,CLR,0.00,WeatherDisplay:10.37,2013-01-13 03:52:00,
2013-01-12 21:57:00,13.3,-3.2,28.88,NW,315,0.0,0.0,47,0.00,CLR,CLR,0.00,WeatherDisplay:10.37,2013-01-13 03:57:00,
2013-01-12 22:02:00,13.1,-3.4,28.88,NW,315,0.0,0.0,47,0.00,CLR,CLR,0.00,WeatherDisplay:10.37,2013-01-13 04:02:00,
2013-01-12 22:07:00,12.9,-3.6,28.88,WNW,292,0.0,0.0,47,0.00,CLR,CLR,0.00,WeatherDisplay:10.37,2013-01-13 04:07:00,
2013-01-12 22:13:00,12.9,-3.6,28.88,WNW,292,0.0,0.0,47,0.00,CLR,CLR,0.00,WeatherDisplay:10.37,2013-01-13 04:13:00,
2013-01-12 22:18:00,12.7,-3.7,28.91,West,270,0.0,0.0,47,0.00,CLR,CLR,0.00,WeatherDisplay:10.37,2013-01-13 04:18:00,
2013-01-12 22:23:00,12.7,-3.7,28.91,WNW,292,0.0,0.0,47,0.00,CLR,CLR,0.00,WeatherDisplay:10.37,2013-01-13 04:23:00,
2013-01-12 22:28:00,12.6,-3.9,28.91,WNW,292,0.0,0.0,47,0.00,CLR,CLR,0.00,WeatherDisplay:10.37,2013-01-13 04:28:00,
2013-01-12 22:33:00,12.6,-3.9,28.91,WNW,292,0.0,0.0,47,0.00,CLR,CLR,0.00,WeatherDisplay:10.37,2013-01-13 04:33:00,
2013-01-12 22:38:00,12.4,-4.1,28.91,West,270,0.0,0.0,47,0.00,CLR,CLR,0.00,WeatherDisplay:10.37,2013-01-13 04:38:00,
2013-01-12 22:43:00,12.2,-4.2,28.91,WNW,292,0.0,0.0,47,0.00,CLR,CLR,0.00,WeatherDisplay:10.37,2013-01-13 04:43:00,
2013-01-12 22:48:00,12.2,-4.2,28.91,WNW,292,0.0,0.0,47,0.00,CLR,CLR,0.00,WeatherDisplay:10.37,2013-01-13 04:48:00,
2013-01-12 22:53:00,12.0,-4.4,28.91,West,270,0.0,0.0,47,0.00,CLR,CLR,0.00,WeatherDisplay:10.37,2013-01-13 04:53:00,
2013-01-12 22:58:00,12.0,-4.4,28.91,WNW,292,0.0,0.0,47,0.00,CLR,CLR,0.00,WeatherDisplay:10.37,2013-01-13 04:58:00,
2013-01-12 23:00:00,12.0,-4.4,28.91,WNW,292,0.0,0.0,47,0.00,CLR,CLR,0.00,WeatherDisplay:10.37,2013-01-13 05:00:00,
2013-01-12 23:03:00,12.0,-4.4,28.91,NW,315,0.0,0.0,47,0.00,CLR,CLR,0.00,WeatherDisplay:10.37,2013-01-13 05:03:00,
2013-01-12 23:05:00,12.0,-4.4,28.91,West,270,0.0,0.0,47,0.00,CLR,CLR,0.00,WeatherDisplay:10.37,2013-01-13 05:05:00,
2013-01-12 23:06:00,12.0,-4.4,28.91,WNW,292,0.0,0.0,47,0.00,CLR,CLR,0.00,WeatherDisplay:10.37,2013-01-13 05:06:00,
2013-01-12 23:11:00,11.8,-4.6,28.91,WNW,292,0.0,0.0,47,0.00,CLR,CLR,0.00,WeatherDisplay:10.37,2013-01-13 05:11:00,
2013-01-12 23:16:00,11.8,-4.6,28.91,WNW,292,0.0,0.0,47,0.00,CLR,CLR,0.00,WeatherDisplay:10.37,2013-01-13 05:16:00,
2013-01-12 23:21:00,11.8,-4.6,28.91,NW,315,0.0,0.0,47,0.00,CLR,CLR,0.00,WeatherDisplay:10.37,2013-01-13 05:21:00,
2013-01-12 23:26:00,11.8,-4.6,28.91,WNW,292,0.0,0.0,47,0.00,CLR,CLR,0.00,WeatherDisplay:10.37,2013-01-13 05:26:00,
2013-01-12 23:31:00,11.8,-4.6,28.91,West,270,0.0,0.0,47,0.00,CLR,CLR,0.00,WeatherDisplay:10.37,2013-01-13 05:31:00,
2013-01-12 23:36:00,11.7,-4.7,28.91,West,270,0.0,0.0,47,0.00,CLR,CLR,0.00,WeatherDisplay:10.37,2013-01-13 05:36:00,
2013-01-12 23:41:00,11.7,-4.7,28.91,WNW,292,0.0,0.0,47,0.00,CLR,CLR,0.00,WeatherDisplay:10.37,2013-01-13 05:41:00,
2013-01-12 23:46:00,11.7,-4.7,28.91,West,270,0.0,0.0,47,0.00,CLR,CLR,0.00,WeatherDisplay:10.37,2013-01-13 05:46:00,
2013-01-12 23:51:00,11.7,-4.7,28.91,West,270,0.0,0.0,47,0.00,CLR,CLR,0.00,WeatherDisplay:10.37,2013-01-13 05:51:00,
2013-01-12 23:56:00,11.7,-4.7,28.91,West,270,0.0,0.0,47,0.00,CLR,CLR,0.00,WeatherDisplay:10.37,2013-01-13 05:56:00,